User: anonymous
Location: Laverne
(36.7100°N, 99.8930°W)
Time: 16:55:44
(UTC-05:00)
Language:

Iridium 32 - Orbit

View from above orbital plane
View from above orbital plane
View from above satellite
View from above satellite

Ground track
Ground track

The orbit data is extracted from the following two-line orbital elements,

1 24945U 97051B   14273.22851554  .00000562  00000-0  19351-3 0   283
2 24945 086.3992 341.3382 0002383 108.4024 251.7431 14.34224028892385
Epoch (UTC): 30 September 2014 05:29:03
Eccentricity: 0.0002383
inclination: 86.3992°
perigee height: 776 km
apogee height: 779 km
right ascension of ascending node: 341.3382°
argument of perigee: 108.4024°
revolutions per day: 14.34224028
mean anomaly at epoch: 251.7431°
orbit number at epoch: 89238

The dashed part of the orbit path shows where the satellite is in the earth's shadow,  

DLR